Regional Weather Roundup
Issued by NWS

Home | Current Version | Previous Version | Graphics & Text | Print | Product List | Glossary On
Versions: 1 2 3 4 5 6 7 8 9 10 11 12 13 14 15 16 17 18 19 20 21 22 23 24 25 26 27 28 29 30 31 32 33 34 35 36 37 38 39 40 41 42 43 44 45 46 47 48 49 50
000
ASUS43 KFSD 200202
RWRSD

WEATHER ROUNDUP FOR SOUTH DAKOTA
NATIONAL WEATHER SERVICE SIOUX FALLS SD
900 PM CDT SAT AUG 19 2017

NOTE: "FAIR" INDICATES FEW OR NO CLOUDS BELOW 12,000 FEET WITH NO
SIGNIFICANT WEATHER AND/OR OBSTRUCTIONS TO VISIBILITY.


SDZ001>005-009-010-012>017-200300-
NORTHWEST AND NORTH CENTRAL SOUTH DAKOTA

CITY           SKY/WX    TMP DP  RH WIND       PRES   REMARKS
BUFFALO          N/A     76  41  28 N14       29.84R
FAITH            N/A     77  44  30 N10       29.85R
MOBRIDGE       PTCLDY    73  63  70 N7        29.76R
$$

SDZ012>016-024>037-041>051-057-063-072>074-200300-
SOUTHWEST AND SOUTH CENTRAL SOUTH DAKOTA

CITY           SKY/WX    TMP DP  RH WIND       PRES   REMARKS
RAPID CTY ARPT CLOUDY    78  40  25 N12       29.89R
PIERRE         CLEAR     79  65  62 SE8       29.74R
CUSTER         CLEAR     71  38  29 NE12      30.05R
ELLSWORTH AFB  CLOUDY    80  41  25 N10       29.89R
PHILIP         CLEAR     84  50  30 N13       29.76R
PINE RIDGE     CLEAR     76  56  49 E6        29.86R
SPEARFISH      FAIR      72  43  35 S3        29.97R
WINNER         FAIR      82  70  66 SE16      29.79R
$$

SDZ004>011-016>023-039-040-200300-
NORTHEAST SOUTH DAKOTA

CITY           SKY/WX    TMP DP  RH WIND       PRES   REMARKS
ABERDEEN       PTCLDY    70  64  81 S7        29.77R
WATERTOWN      CLEAR     70  64  81 S12       29.82S
BROOKINGS      CLEAR     71  65  81 S15       29.84S
SISSETON         N/A     69  64  84 S6        29.78R
$$

SDZ017-020-022-023-036>040-048>070-200300-
SOUTHEAST SOUTH DAKOTA

CITY           SKY/WX    TMP DP  RH WIND       PRES   REMARKS
SIOUX FALLS    PTCLDY    75  65  70 SE7       29.86R
HURON          CLEAR     74  64  71 SE12      29.79R
CHAMBERLAIN    CLEAR     77  71  82 E9        29.79R
MITCHELL       CLEAR     75  66  73 SE8       29.82R
YANKTON        CLOUDY    75  65  70 E6        29.84
$$

ABBREVIATIONS USED IN REMARKS
   TC - TEMPERATURE IN CELSIUS
  WCI - WIND CHILL INDEX
   HX - HEAT INDEX
  VSB - VISIBILITY





USA.gov is the U.S. government's official web portal to all federal, state and local government web resources and services.